Regional Weather Roundup
Issued by NWS New Orleans/Baton Rouge, LA

Home | Current Version | Previous Version | Text Only | Print | Product List | Glossary On
Versions: 1 2 3 4 5 6 7 8 9 10 11 12 13 14 15 16 17 18 19 20 21 22 23 24 25 26 27
000
ASUS44 KLIX 251411
RWRLIX
NEW ORLEANS REGIONAL WEATHER ROUNDUP
NATIONAL WEATHER SERVICE NEW ORLEANS LA
900 AM CDT SUN SEP 25 2016

NOTE: "FAIR" INDICATES FEW OR NO CLOUDS BELOW 12,000 FEET WITH NO
      SIGNIFICANT WEATHER AND/OR OBSTRUCTIONS TO VISIBILITY.
      SKY/WX - SKY CONDITION AND SIGNIFICANT WEATHER.
      TMP - AIR TEMPERATURE.     DP    - DEWPOINT TEMPERATURE.
      RH  - RELATIVE HUMIDITY.   PRES  - PRESSURE.
      HI  - HEAT INDEX.          WCI   - WIND CHILL INDEX.

*  THESE STATIONS ARE NOT NWS OR FAA STATIONS AND ARE NOT UNDER
   NWS QUALITY CONTROL.

LAZ038-040-048-061>063-065>067-069-251500-
SOUTHEAST LOUISIANA

CITY           SKY/WX    TMP DP  RH WIND       PRES   REMARKS
N.O. AUDUBON   NOT AVBL
N.O. INTL ARPT MOSUNNY   85  75  72 CALM      30.05R
N.O. LAKEFRONT MOSUNNY   83  75  77 N9        30.06R
N.O. DOWNTOWN*   N/A     84  75  74 CALM      30.06S
RESERVE*         N/A     83  78  85 NE6       30.05S
SLIDELL        SUNNY     80  74  81 NE6       30.05S
BATON ROUGE    SUNNY     79  73  82 NE5       30.06R
BOOTHVILLE     SUNNY     84  75  74 CALM      30.06R
BELLE CHASSE   MOSUNNY   83  77  82 CALM      30.05S
BOGALUSA*        N/A     78  71  79 CALM      30.08S
GALLIANO*      NOT AVBL
NEW ROADS*       N/A     78  73  85 MISG      30.05S
GONZALES*        N/A     78  74  87 CALM      30.05R FOG
HAMMOND*       SUNNY     81  70  69 CALM      30.06R
HOUMA*         SUNNY     81  77  89 E3        30.05R
PORT FOURCHON* SUNNY     84  72  65 SE5       30.04S

$$

MSZ070-080>082-251500-
SOUTHERN MISSISSIPPI

CITY           SKY/WX    TMP DP  RH WIND       PRES   REMARKS
MCCOMB         SUNNY     80  71  74 N5        30.07S
GULFPORT       SUNNY     81  74  79 NW7       30.05R
BILOXI         SUNNY     82  74  78 NW3       30.05S
PASCAGOULA     SUNNY     80  76  87 NW3       30.05S
STENNIS ARPT*  MOSUNNY   77  70  78 NW3       30.06S

$$

COASTAL OBSERVATIONS
LAKE AND NEARSHORE STATIONS

STATION/POSITION TIME  TEMP    WIND        PRES    WAVE
                       AIR SEA DIR/SP/G            HT/PER
                 (UTC) (F)     (DEG/KT/KT) (MB)    (FT/S)
PASCAGOULA       1300   77     320/  3/  5 1017.1
WAVELAND YACHT   1300   78 85  360/  7/  8 1017.7
GRAND ISLE       1300   86 87     CALM     1017.6
SOUTHWEST PASS   1300          340/  3/  4   N/A
NEW CANAL        1300   80 86  220/  2/  2 1016.7
SHELL BEACH      1300   83 86  360/  4/  6 1017.7

OFFSHORE STATIONS

STATION/POSITION TIME  TEMP    WIND        PRES    WAVE
                       AIR SEA DIR/SP/G            HT/PER
                 (UTC) (F)     (DEG/KT/KT) (MB)    (FT/S)
64 S DAUPHIN ISL 1300   83 85  340/  6/  8 1017.0

$$





USA.gov is the U.S. government's official web portal to all federal, state and local government web resources and services.